START_TIME,STEP,MOV.,M15,t_acc.,M20,t_acc.
1986-01-25 21:00:45.260 ,5,0,0.,24.0,0.,24.0
1986-01-25 21:01:09.260 ,4,1,0.,24.0,0.,24.0
1986-01-25 21:01:33.260 ,4,0,0.,24.0,0.,24.0
1986-01-25 21:01:57.260 ,3,1,0.,24.0,0.,24.0
1986-01-25 21:02:21.260 ,3,0,0.,24.0,0.,24.0
1986-01-25 21:02:45.260 ,2,1,0.,24.0,0.,24.0
1986-01-25 21:03:09.260 ,2,0,1.,24.0,0.,24.0
1986-01-25 21:03:33.260 ,1,1,0.,24.0,0.,24.0
1986-01-25 21:03:57.260 ,1,0,0.,24.0,0.,24.0
1986-01-25 21:04:21.260 ,0,1,0.,24.0,0.,24.0
1986-01-25 21:04:45.260 ,0,0,0.,24.0,0.,24.0
1986-01-25 21:05:09.250 ,0,1,0.,24.0,0.,24.0
1986-01-25 21:05:33.250 ,0,0,0.,24.0,0.,24.0
1986-01-25 21:05:57.250 ,1,1,0.,24.0,0.,24.0
1986-01-25 21:06:21.250 ,1,0,0.,24.0,0.,24.0
1986-01-25 21:06:45.250 ,2,1,0.,24.0,0.,24.0
1986-01-25 21:07:09.250 ,2,0,0.,24.0,0.,24.0
1986-01-25 21:07:33.250 ,3,1,0.,24.0,0.,24.0
1986-01-25 21:07:57.250 ,3,0,0.,24.0,0.,24.0
1986-01-25 21:08:21.250 ,4,1,0.,24.0,0.,24.0
1986-01-25 21:08:45.250 ,4,0,1.,24.0,0.,24.0
1986-01-25 21:09:09.250 ,5,1,0.,24.0,0.,24.0
1986-01-25 21:09:33.250 ,5,0,0.,24.0,0.,24.0
1986-01-25 21:09:57.250 ,6,1,0.,24.0,0.,24.0
1986-01-25 21:10:21.250 ,6,0,0.,24.0,0.,24.0
1986-01-25 21:10:45.250 ,7,1,0.,24.0,0.,24.0
1986-01-25 21:11:09.250 ,7,0,0.,24.0,0.,24.0
1986-01-25 21:11:33.250 ,7,1,0.,24.0,0.,24.0
1986-01-25 21:11:57.250 ,7,0,0.,24.0,0.,24.0
1986-01-25 21:12:21.250 ,6,1,0.,24.0,0.,24.0
1986-01-25 21:12:45.250 ,6,0,0.,24.0,0.,24.0
1986-01-25 21:13:09.250 ,5,1,0.,24.0,0.,24.0
1986-01-25 21:13:33.250 ,5,0,0.,24.0,0.,24.0
1986-01-25 21:13:57.250 ,4,1,0.,24.0,0.,24.0
1986-01-25 21:14:21.250 ,4,0,0.,24.0,0.,24.0
1986-01-25 21:14:45.250 ,3,1,0.,24.0,0.,24.0
1986-01-25 21:15:09.250 ,3,0,1.,24.0,0.,24.0
1986-01-25 21:15:33.250 ,2,1,0.,24.0,0.,24.0
1986-01-25 21:15:57.250 ,2,0,0.,24.0,0.,24.0
1986-01-25 21:16:21.250 ,1,1,1.,24.0,0.,24.0
1986-01-25 21:16:45.250 ,1,0,0.,24.0,0.,24.0
1986-01-25 21:17:09.250 ,0,1,0.,24.0,0.,24.0
1986-01-25 21:17:33.250 ,0,0,0.,24.0,0.,24.0
1986-01-25 21:17:57.250 ,0,1,0.,24.0,0.,24.0
1986-01-25 21:18:21.250 ,0,0,0.,24.0,0.,24.0
1986-01-25 21:18:45.250 ,1,1,0.,24.0,0.,24.0
1986-01-25 21:19:09.250 ,1,0,1.,24.0,0.,24.0
1986-01-25 21:19:33.250 ,2,1,1.,24.0,0.,24.0
1986-01-25 21:19:57.250 ,2,0,0.,24.0,0.,24.0
1986-01-25 21:20:21.250 ,3,1,0.,24.0,0.,24.0
1986-01-25 21:20:45.250 ,3,0,0.,24.0,0.,24.0
1986-01-25 21:21:09.250 ,4,1,0.,24.0,0.,24.0
1986-01-25 21:21:33.250 ,4,0,0.,24.0,0.,24.0
1986-01-25 21:21:57.250 ,5,1,0.,24.0,0.,24.0
1986-01-25 21:22:21.250 ,5,0,0.,24.0,0.,24.0
1986-01-25 21:22:45.250 ,6,1,2.,24.0,0.,24.0
1986-01-25 21:23:09.250 ,6,0,0.,24.0,0.,24.0
1986-01-25 21:23:33.250 ,7,1,0.,24.0,0.,24.0
1986-01-25 21:23:57.250 ,7,0,1.,24.0,0.,24.0
1986-01-25 21:24:21.250 ,7,1,0.,24.0,0.,24.0
1986-01-25 21:24:45.250 ,7,0,0.,24.0,0.,24.0
1986-01-25 21:25:09.250 ,6,1,0.,24.0,0.,24.0
1986-01-25 21:25:33.250 ,6,0,0.,24.0,0.,24.0
1986-01-25 21:25:57.250 ,5,1,0.,24.0,0.,24.0
1986-01-25 21:26:21.250 ,5,0,0.,24.0,0.,24.0
1986-01-25 21:26:45.250 ,4,1,0.,24.0,0.,24.0
1986-01-25 21:27:09.250 ,4,0,0.,24.0,0.,24.0
1986-01-25 21:27:33.250 ,3,1,0.,24.0,0.,24.0
1986-01-25 21:27:57.250 ,3,0,0.,24.0,0.,24.0
1986-01-25 21:28:21.250 ,2,1,0.,24.0,0.,24.0
1986-01-25 21:28:45.250 ,2,0,0.,24.0,0.,24.0
1986-01-25 21:29:09.250 ,1,1,0.,24.0,0.,24.0
1986-01-25 21:29:33.250 ,1,0,0.,24.0,0.,24.0
1986-01-25 21:29:57.250 ,0,1,0.,24.0,0.,24.0
1986-01-25 21:30:21.250 ,0,0,0.,24.0,0.,24.0
1986-01-25 21:30:45.250 ,0,1,0.,24.0,0.,24.0
1986-01-25 21:31:09.250 ,0,0,0.,24.0,0.,24.0
1986-01-25 21:31:33.250 ,1,1,0.,24.0,0.,24.0
1986-01-25 21:31:57.250 ,1,0,0.,24.0,0.,24.0
1986-01-25 21:32:21.250 ,2,1,0.,24.0,0.,24.0
1986-01-25 21:32:45.250 ,2,0,0.,24.0,0.,24.0
1986-01-25 21:33:09.250 ,3,1,0.,24.0,0.,24.0
1986-01-25 21:33:33.250 ,3,0,1.,24.0,0.,24.0
1986-01-25 21:33:57.250 ,4,1,0.,24.0,0.,24.0
1986-01-25 21:34:21.250 ,4,0,1.,24.0,0.,24.0
1986-01-25 21:34:45.250 ,5,1,0.,24.0,0.,24.0
1986-01-25 21:35:09.250 ,5,0,0.,24.0,0.,24.0
1986-01-25 21:35:33.250 ,6,1,0.,24.0,0.,24.0
1986-01-25 21:35:57.250 ,6,0,0.,24.0,0.,24.0
1986-01-25 21:36:21.250 ,7,1,0.,24.0,0.,24.0
1986-01-25 21:36:45.250 ,7,0,0.,24.0,0.,24.0
1986-01-25 21:37:09.250 ,7,1,0.,24.0,0.,24.0
1986-01-25 21:37:33.250 ,7,0,1.,24.0,0.,24.0
1986-01-25 21:37:57.250 ,6,1,0.,24.0,0.,24.0
1986-01-25 21:38:21.250 ,6,0,0.,24.0,0.,24.0
1986-01-25 21:38:45.250 ,5,1,0.,24.0,0.,24.0
1986-01-25 21:39:09.250 ,5,0,0.,24.0,0.,24.0
1986-01-25 21:39:33.250 ,4,1,0.,24.0,0.,24.0
1986-01-25 21:39:57.250 ,4,0,0.,24.0,0.,24.0
1986-01-25 21:40:21.250 ,3,1,0.,24.0,0.,24.0
1986-01-25 21:40:45.250 ,3,0,1.,24.0,0.,24.0
1986-01-25 21:41:09.250 ,2,1,0.,24.0,0.,24.0
1986-01-25 21:41:33.250 ,2,0,0.,24.0,0.,24.0
1986-01-25 21:41:57.250 ,1,1,0.,24.0,0.,24.0
1986-01-25 21:42:21.250 ,1,0,1.,24.0,0.,24.0
1986-01-25 21:42:45.250 ,0,1,0.,24.0,0.,24.0
1986-01-25 21:43:09.250 ,0,0,0.,24.0,0.,24.0
1986-01-25 21:43:33.250 ,0,1,0.,24.0,0.,24.0
1986-01-25 21:43:57.250 ,0,0,0.,24.0,0.,24.0
1986-01-25 21:44:21.250 ,1,1,0.,24.0,0.,24.0
1986-01-25 21:44:45.250 ,1,0,0.,24.0,0.,24.0
1986-01-25 21:45:09.250 ,2,1,0.,24.0,0.,24.0
1986-01-25 21:45:33.250 ,2,0,0.,24.0,0.,24.0
1986-01-25 21:45:57.250 ,3,1,0.,24.0,0.,24.0
1986-01-25 21:46:21.250 ,3,0,0.,24.0,0.,24.0
1986-01-25 21:46:45.250 ,4,1,0.,24.0,0.,24.0
1986-01-25 21:47:09.250 ,4,0,0.,24.0,0.,24.0
1986-01-25 21:47:33.250 ,5,1,0.,24.0,0.,24.0
1986-01-25 21:47:57.250 ,5,0,0.,24.0,0.,24.0
1986-01-25 21:48:21.250 ,6,1,1.,24.0,0.,24.0
1986-01-25 21:48:45.250 ,6,0,0.,24.0,0.,24.0
1986-01-25 21:49:09.250 ,7,1,0.,24.0,0.,24.0
1986-01-25 21:49:33.250 ,7,0,0.,24.0,0.,24.0
1986-01-25 21:49:57.250 ,7,1,0.,24.0,0.,24.0
1986-01-25 21:50:21.250 ,7,0,0.,24.0,0.,24.0
1986-01-25 21:50:45.250 ,6,1,1.,24.0,0.,24.0
1986-01-25 21:51:09.250 ,6,0,0.,24.0,0.,24.0
1986-01-25 21:51:33.250 ,5,1,0.,24.0,0.,24.0
1986-01-25 21:51:57.250 ,5,0,1.,24.0,0.,24.0
1986-01-25 21:52:21.250 ,4,1,0.,24.0,0.,24.0
1986-01-25 21:52:45.250 ,4,0,0.,24.0,0.,24.0
1986-01-25 21:53:09.250 ,3,1,1.,24.0,0.,24.0
1986-01-25 21:53:33.250 ,3,0,0.,24.0,0.,24.0
1986-01-25 21:53:57.250 ,2,1,1.,24.0,0.,24.0
1986-01-25 21:54:21.250 ,2,0,0.,24.0,0.,24.0
1986-01-25 21:54:45.250 ,1,1,0.,24.0,0.,24.0
1986-01-25 21:55:09.250 ,1,0,0.,24.0,0.,24.0
1986-01-25 21:55:33.250 ,0,1,0.,24.0,0.,24.0
1986-01-25 21:55:57.250 ,0,0,0.,24.0,0.,24.0
1986-01-25 21:56:21.250 ,0,1,0.,24.0,0.,24.0
1986-01-25 21:56:45.250 ,0,0,0.,24.0,0.,24.0
1986-01-25 21:57:09.250 ,1,1,0.,24.0,0.,24.0
1986-01-25 21:57:33.250 ,1,0,0.,24.0,0.,24.0
1986-01-25 21:57:57.250 ,2,1,0.,24.0,0.,24.0
1986-01-25 21:58:21.250 ,2,0,0.,24.0,0.,24.0
1986-01-25 21:58:45.250 ,3,1,0.,24.0,0.,24.0
1986-01-25 21:59:09.250 ,3,0,1.,24.0,0.,24.0
1986-01-25 21:59:33.250 ,4,1,0.,24.0,0.,24.0
1986-01-25 21:59:57.250 ,4,0,0.,24.0,0.,24.0
1986-01-25 22:00:21.250 ,5,1,0.,24.0,0.,24.0
1986-01-25 22:00:45.250 ,5,0,0.,24.0,0.,24.0
1986-01-25 22:01:09.250 ,6,1,0.,24.0,0.,24.0
1986-01-25 22:01:33.250 ,6,0,0.,24.0,0.,24.0
1986-01-25 22:01:57.250 ,7,1,0.,24.0,0.,24.0
1986-01-25 22:02:21.250 ,7,0,0.,24.0,0.,24.0
1986-01-25 22:02:45.250 ,7,1,0.,24.0,0.,24.0
1986-01-25 22:03:09.250 ,7,0,0.,24.0,0.,24.0
1986-01-25 22:03:33.250 ,6,1,0.,24.0,0.,24.0
1986-01-25 22:03:57.250 ,6,0,0.,24.0,0.,24.0
1986-01-25 22:04:21.250 ,5,1,0.,24.0,0.,24.0
1986-01-25 22:04:45.250 ,5,0,0.,24.0,0.,24.0
1986-01-25 22:05:09.250 ,4,1,0.,24.0,0.,24.0
1986-01-25 22:05:33.250 ,4,0,0.,24.0,0.,24.0
1986-01-25 22:05:57.250 ,3,1,0.,24.0,0.,24.0
1986-01-25 22:06:21.250 ,3,0,0.,24.0,0.,24.0
1986-01-25 22:06:45.250 ,2,1,0.,24.0,0.,24.0
1986-01-25 22:07:09.250 ,2,0,0.,24.0,0.,24.0
1986-01-25 22:07:33.250 ,1,1,0.,24.0,0.,24.0
1986-01-25 22:07:57.250 ,1,0,0.,24.0,0.,24.0
1986-01-25 22:08:21.250 ,0,1,0.,24.0,0.,24.0
1986-01-25 22:08:45.250 ,0,0,0.,24.0,0.,24.0
1986-01-25 22:09:09.250 ,0,1,0.,24.0,0.,24.0
1986-01-25 22:09:33.250 ,0,0,0.,24.0,0.,24.0
1986-01-25 22:09:57.250 ,1,1,0.,24.0,0.,24.0
1986-01-25 22:10:21.250 ,1,0,0.,24.0,0.,24.0
1986-01-25 22:10:45.250 ,2,1,0.,24.0,0.,24.0
1986-01-25 22:11:09.250 ,2,0,0.,24.0,0.,24.0
1986-01-25 22:11:33.250 ,3,1,0.,24.0,0.,24.0
1986-01-25 22:11:57.250 ,3,0,0.,24.0,0.,24.0
1986-01-25 22:12:21.250 ,4,1,0.,24.0,0.,24.0
1986-01-25 22:12:45.250 ,4,0,1.,24.0,0.,24.0
1986-01-25 22:13:09.250 ,5,1,0.,24.0,0.,24.0
1986-01-25 22:13:33.250 ,5,0,0.,24.0,0.,24.0
1986-01-25 22:13:57.250 ,6,1,0.,24.0,0.,24.0
1986-01-25 22:14:21.250 ,6,0,1.,24.0,0.,24.0
1986-01-25 22:14:45.250 ,7,1,1.,24.0,0.,24.0
1986-01-25 22:15:09.250 ,7,0,0.,24.0,0.,24.0
1986-01-25 22:15:33.250 ,7,1,0.,24.0,0.,24.0
1986-01-25 22:15:57.250 ,7,0,1.,24.0,0.,24.0
1986-01-25 22:16:21.250 ,6,1,0.,24.0,0.,24.0
1986-01-25 22:16:45.250 ,6,0,0.,24.0,0.,24.0
1986-01-25 22:17:09.250 ,5,1,0.,24.0,0.,24.0
1986-01-25 22:17:33.250 ,5,0,0.,24.0,0.,24.0
1986-01-25 22:17:57.250 ,4,1,0.,24.0,0.,24.0
1986-01-25 22:18:21.250 ,4,0,0.,24.0,0.,24.0
1986-01-25 22:18:45.250 ,3,1,0.,24.0,0.,24.0
1986-01-25 22:19:09.250 ,3,0,0.,24.0,0.,24.0
1986-01-25 22:19:33.250 ,2,1,0.,24.0,0.,24.0
1986-01-25 22:19:57.250 ,2,0,0.,24.0,0.,24.0
1986-01-25 22:20:21.250 ,1,1,0.,24.0,0.,24.0
1986-01-25 22:20:45.250 ,1,0,0.,24.0,0.,24.0
1986-01-25 22:21:09.250 ,0,1,0.,24.0,0.,24.0
1986-01-25 22:21:33.250 ,0,0,0.,24.0,0.,24.0
1986-01-25 22:21:57.250 ,0,1,1.,24.0,0.,24.0
1986-01-25 22:22:21.250 ,0,0,0.,24.0,0.,24.0
1986-01-25 22:22:45.250 ,1,1,0.,24.0,0.,24.0
1986-01-25 22:23:09.250 ,1,0,0.,24.0,0.,24.0
1986-01-25 22:23:33.250 ,2,1,0.,24.0,0.,24.0
1986-01-25 22:23:57.250 ,2,0,0.,24.0,0.,24.0
1986-01-25 22:24:21.250 ,3,1,0.,24.0,0.,24.0
1986-01-25 22:24:45.250 ,3,0,0.,24.0,0.,24.0
1986-01-25 22:25:09.250 ,4,1,0.,24.0,0.,24.0
1986-01-25 22:25:33.250 ,4,0,0.,24.0,0.,24.0
1986-01-25 22:25:57.250 ,5,1,0.,24.0,0.,24.0
1986-01-25 22:26:21.250 ,5,0,0.,24.0,0.,24.0
1986-01-25 22:26:45.250 ,6,1,0.,24.0,0.,24.0
1986-01-25 22:27:09.250 ,6,0,0.,24.0,0.,24.0
1986-01-25 22:27:33.250 ,7,1,1.,24.0,0.,24.0
1986-01-25 22:27:57.250 ,7,0,0.,24.0,0.,24.0
1986-01-25 22:28:21.250 ,7,1,0.,24.0,0.,24.0
1986-01-25 22:28:45.250 ,7,0,0.,24.0,0.,24.0
1986-01-25 22:29:09.250 ,6,1,0.,24.0,0.,24.0
1986-01-25 22:29:33.250 ,6,0,0.,24.0,0.,24.0
1986-01-25 22:29:57.250 ,5,1,0.,24.0,0.,24.0
1986-01-25 22:30:21.250 ,5,0,0.,24.0,0.,24.0
1986-01-25 22:30:45.250 ,4,1,0.,24.0,0.,24.0
1986-01-25 22:31:09.250 ,4,0,0.,24.0,0.,24.0
1986-01-25 22:31:33.250 ,3,1,0.,24.0,0.,24.0
1986-01-25 22:31:57.250 ,3,0,0.,24.0,0.,24.0
1986-01-25 22:32:21.250 ,2,1,1.,24.0,0.,24.0
1986-01-25 22:32:45.250 ,2,0,0.,24.0,0.,24.0
1986-01-25 22:33:09.250 ,1,1,0.,24.0,0.,24.0
1986-01-25 22:33:33.250 ,1,0,0.,24.0,0.,24.0
1986-01-25 22:33:57.250 ,0,1,0.,24.0,0.,24.0
1986-01-25 22:34:21.250 ,0,0,0.,24.0,0.,24.0
1986-01-25 22:34:45.250 ,0,1,0.,24.0,0.,24.0
1986-01-25 22:35:09.250 ,0,0,0.,24.0,0.,24.0
1986-01-25 22:35:33.250 ,1,1,0.,24.0,0.,24.0
1986-01-25 22:35:57.250 ,1,0,1.,24.0,0.,24.0
1986-01-25 22:36:21.250 ,2,1,0.,24.0,0.,24.0
1986-01-25 22:36:45.250 ,2,0,0.,24.0,0.,24.0
1986-01-25 22:37:09.250 ,3,1,0.,24.0,0.,24.0
1986-01-25 22:37:33.250 ,3,0,0.,24.0,0.,24.0
1986-01-25 22:37:57.250 ,4,1,0.,24.0,0.,24.0
1986-01-25 22:38:21.250 ,4,0,0.,24.0,0.,24.0
1986-01-25 22:38:45.250 ,5,1,1.,24.0,0.,24.0
1986-01-25 22:39:09.250 ,5,0,1.,24.0,0.,24.0
1986-01-25 22:39:33.250 ,6,1,0.,24.0,0.,24.0
1986-01-25 22:39:57.250 ,6,0,0.,24.0,0.,24.0
1986-01-25 22:40:21.250 ,7,1,0.,24.0,0.,24.0
1986-01-25 22:40:45.250 ,7,0,0.,24.0,0.,24.0
1986-01-25 22:41:09.250 ,7,1,0.,24.0,0.,24.0
1986-01-25 22:41:33.250 ,7,0,0.,24.0,0.,24.0
1986-01-25 22:41:57.250 ,6,1,0.,24.0,0.,24.0
1986-01-25 22:42:21.250 ,6,0,0.,24.0,0.,24.0
1986-01-25 22:42:45.250 ,5,1,0.,24.0,0.,24.0
1986-01-25 22:43:09.250 ,5,0,0.,24.0,0.,24.0
1986-01-25 22:43:33.250 ,4,1,0.,24.0,0.,24.0
1986-01-25 22:43:57.250 ,4,0,1.,24.0,0.,24.0
1986-01-25 22:44:21.250 ,3,1,0.,24.0,0.,24.0
1986-01-25 22:44:45.250 ,3,0,0.,24.0,0.,24.0
1986-01-25 22:45:09.250 ,2,1,1.,24.0,0.,24.0
1986-01-25 22:45:33.250 ,2,0,0.,24.0,0.,24.0
1986-01-25 22:45:57.250 ,1,1,0.,24.0,0.,24.0
1986-01-25 22:46:21.250 ,1,0,0.,24.0,0.,24.0
1986-01-25 22:46:45.250 ,0,1,0.,24.0,0.,24.0
1986-01-25 22:47:09.250 ,0,0,0.,24.0,0.,24.0
1986-01-25 22:47:33.250 ,0,1,0.,24.0,0.,24.0
1986-01-25 22:47:57.250 ,0,0,0.,24.0,0.,24.0
1986-01-25 22:48:21.250 ,1,1,0.,24.0,0.,24.0
1986-01-25 22:48:45.250 ,1,0,0.,24.0,0.,24.0
1986-01-25 22:49:09.250 ,2,1,0.,24.0,0.,24.0
1986-01-25 22:49:33.250 ,2,0,0.,24.0,0.,24.0
1986-01-25 22:49:57.250 ,3,1,0.,24.0,0.,24.0
1986-01-25 22:50:21.250 ,3,0,0.,24.0,0.,24.0
1986-01-25 22:50:45.250 ,4,1,0.,24.0,0.,24.0
1986-01-25 22:51:09.250 ,4,0,0.,24.0,0.,24.0
1986-01-25 22:51:33.250 ,5,1,0.,24.0,0.,24.0
1986-01-25 22:51:57.250 ,5,0,0.,24.0,0.,24.0
1986-01-25 22:52:21.250 ,6,1,1.,24.0,0.,24.0
1986-01-25 22:52:45.250 ,6,0,1.,24.0,0.,24.0
1986-01-25 22:53:09.250 ,7,1,0.,24.0,0.,24.0
1986-01-25 22:53:33.250 ,7,0,0.,24.0,0.,24.0
1986-01-25 22:53:57.250 ,7,1,2.,24.0,0.,24.0
1986-01-25 22:54:21.250 ,7,0,0.,24.0,0.,24.0
1986-01-25 22:54:45.250 ,6,1,0.,24.0,0.,24.0
1986-01-25 22:55:09.250 ,6,0,0.,24.0,0.,24.0
1986-01-25 22:55:33.250 ,5,1,0.,24.0,0.,24.0
1986-01-25 22:55:57.250 ,5,0,0.,24.0,0.,24.0
1986-01-25 22:56:21.250 ,4,1,0.,24.0,0.,24.0
1986-01-25 22:56:45.250 ,4,0,0.,24.0,0.,24.0
1986-01-25 22:57:09.250 ,3,1,0.,24.0,0.,24.0
1986-01-25 22:57:33.250 ,3,0,0.,24.0,0.,24.0
1986-01-25 22:57:57.250 ,2,1,0.,24.0,0.,24.0
1986-01-25 22:58:21.250 ,2,0,1.,24.0,0.,24.0
1986-01-25 22:58:45.250 ,1,1,0.,24.0,0.,24.0
1986-01-25 22:59:09.250 ,1,0,0.,24.0,0.,24.0
1986-01-25 22:59:33.250 ,0,1,1.,24.0,0.,24.0
1986-01-25 22:59:57.250 ,0,0,1.,24.0,0.,24.0
1986-01-25 23:00:21.250 ,0,1,0.,24.0,0.,24.0
1986-01-25 23:00:45.250 ,0,0,0.,24.0,0.,24.0
1986-01-25 23:01:09.250 ,1,1,0.,24.0,0.,24.0
1986-01-25 23:01:33.250 ,1,0,0.,24.0,0.,24.0
1986-01-25 23:01:57.250 ,2,1,0.,24.0,0.,24.0
1986-01-25 23:02:21.250 ,2,0,0.,24.0,0.,24.0
1986-01-25 23:02:45.250 ,3,1,0.,24.0,0.,24.0
1986-01-25 23:03:09.250 ,3,0,0.,24.0,0.,24.0
1986-01-25 23:03:33.250 ,4,1,0.,24.0,0.,24.0
1986-01-25 23:03:57.250 ,4,0,1.,24.0,0.,24.0
1986-01-25 23:04:21.250 ,5,1,1.,24.0,0.,24.0
1986-01-25 23:04:45.250 ,5,0,0.,24.0,0.,24.0
1986-01-25 23:05:09.250 ,6,1,0.,24.0,0.,24.0
1986-01-25 23:05:33.250 ,6,0,0.,24.0,0.,24.0
1986-01-25 23:05:57.250 ,7,1,1.,24.0,0.,24.0
1986-01-25 23:06:21.250 ,7,0,0.,24.0,0.,24.0
1986-01-25 23:06:45.250 ,7,1,0.,24.0,0.,24.0
1986-01-25 23:07:09.250 ,7,0,0.,24.0,0.,24.0
1986-01-25 23:07:33.250 ,6,1,0.,24.0,0.,24.0
1986-01-25 23:07:57.250 ,6,0,0.,24.0,0.,24.0
1986-01-25 23:08:21.250 ,5,1,0.,24.0,0.,24.0
1986-01-25 23:08:45.250 ,5,0,0.,24.0,0.,24.0
1986-01-25 23:09:09.250 ,4,1,1.,24.0,0.,24.0
1986-01-25 23:09:33.250 ,4,0,0.,24.0,0.,24.0
1986-01-25 23:09:57.250 ,3,1,0.,24.0,0.,24.0
1986-01-25 23:10:21.250 ,3,0,0.,24.0,0.,24.0
1986-01-25 23:10:45.250 ,2,1,0.,24.0,0.,24.0
1986-01-25 23:11:09.250 ,2,0,0.,24.0,0.,24.0
1986-01-25 23:11:33.250 ,1,1,0.,24.0,0.,24.0
1986-01-25 23:11:57.250 ,1,0,0.,24.0,0.,24.0
1986-01-25 23:12:21.250 ,0,1,0.,24.0,0.,24.0
1986-01-25 23:12:45.250 ,0,0,0.,24.0,0.,24.0
1986-01-25 23:13:09.250 ,0,1,0.,24.0,0.,24.0
1986-01-25 23:13:33.250 ,0,0,0.,24.0,0.,24.0
1986-01-25 23:13:57.250 ,1,1,0.,24.0,0.,24.0
1986-01-25 23:14:21.250 ,1,0,0.,24.0,0.,24.0
1986-01-25 23:14:45.250 ,2,1,0.,24.0,0.,24.0
1986-01-25 23:15:09.250 ,2,0,0.,24.0,0.,24.0
1986-01-25 23:15:33.250 ,3,1,0.,24.0,0.,24.0
1986-01-25 23:15:57.250 ,3,0,0.,24.0,0.,24.0
1986-01-25 23:16:21.250 ,4,1,0.,24.0,0.,24.0
1986-01-25 23:16:45.250 ,4,0,0.,24.0,0.,24.0
1986-01-25 23:17:09.250 ,5,1,0.,24.0,0.,24.0
1986-01-25 23:17:33.250 ,5,0,0.,24.0,0.,24.0
1986-01-25 23:17:57.250 ,6,1,0.,24.0,0.,24.0
1986-01-25 23:18:21.250 ,6,0,0.,24.0,0.,24.0
1986-01-25 23:18:45.250 ,7,1,0.,24.0,0.,24.0
1986-01-25 23:19:09.250 ,7,0,0.,24.0,0.,24.0
1986-01-25 23:19:33.250 ,7,1,0.,24.0,0.,24.0
1986-01-25 23:19:57.250 ,7,0,0.,24.0,0.,24.0
1986-01-25 23:20:21.250 ,6,1,0.,24.0,0.,24.0
1986-01-25 23:20:45.250 ,6,0,0.,24.0,0.,24.0
1986-01-25 23:21:09.240 ,5,1,0.,24.0,0.,24.0
1986-01-25 23:21:33.240 ,5,0,0.,24.0,0.,24.0
1986-01-25 23:21:57.240 ,4,1,0.,24.0,0.,24.0
1986-01-25 23:22:21.240 ,4,0,0.,24.0,0.,24.0
1986-01-25 23:22:45.240 ,3,1,0.,24.0,0.,24.0
1986-01-25 23:23:09.240 ,3,0,0.,24.0,0.,24.0
1986-01-25 23:23:33.240 ,2,1,0.,24.0,0.,24.0
1986-01-25 23:23:57.240 ,2,0,0.,24.0,0.,24.0
1986-01-25 23:24:21.240 ,1,1,0.,24.0,0.,24.0
1986-01-25 23:24:45.240 ,1,0,1.,24.0,0.,24.0
1986-01-25 23:25:09.240 ,0,1,0.,24.0,0.,24.0
1986-01-25 23:25:33.240 ,0,0,0.,24.0,0.,24.0
1986-01-25 23:25:57.240 ,0,1,0.,24.0,0.,24.0
1986-01-25 23:26:21.240 ,0,0,0.,24.0,0.,24.0
1986-01-25 23:26:45.240 ,1,1,0.,24.0,0.,24.0
1986-01-25 23:27:09.240 ,1,0,0.,24.0,0.,24.0
1986-01-25 23:27:33.240 ,2,1,0.,24.0,0.,24.0
1986-01-25 23:27:57.240 ,2,0,0.,24.0,0.,24.0
1986-01-25 23:28:21.240 ,3,1,0.,24.0,0.,24.0
1986-01-25 23:28:45.240 ,3,0,0.,24.0,0.,24.0
1986-01-25 23:29:09.240 ,4,1,0.,24.0,0.,24.0
1986-01-25 23:29:33.240 ,4,0,0.,24.0,0.,24.0
1986-01-25 23:29:57.240 ,5,1,0.,24.0,0.,24.0
1986-01-25 23:30:21.240 ,5,0,0.,24.0,0.,24.0
1986-01-25 23:30:45.240 ,6,1,1.,24.0,0.,24.0
1986-01-25 23:31:09.240 ,6,0,0.,24.0,0.,24.0
1986-01-25 23:31:33.240 ,7,1,0.,24.0,0.,24.0
1986-01-25 23:31:57.240 ,7,0,0.,24.0,0.,24.0
1986-01-25 23:32:21.240 ,7,1,0.,24.0,0.,24.0
1986-01-25 23:32:45.240 ,7,0,0.,24.0,0.,24.0
1986-01-25 23:33:09.240 ,6,1,0.,24.0,0.,24.0
1986-01-25 23:33:33.240 ,6,0,0.,24.0,0.,24.0
1986-01-25 23:33:57.240 ,5,1,0.,24.0,0.,24.0
1986-01-25 23:34:21.240 ,5,0,0.,24.0,0.,24.0
1986-01-25 23:34:45.240 ,4,1,0.,24.0,0.,24.0
1986-01-25 23:35:09.240 ,4,0,0.,24.0,0.,24.0
1986-01-25 23:35:33.240 ,3,1,0.,24.0,0.,24.0
1986-01-25 23:35:57.240 ,3,0,1.,24.0,0.,24.0
1986-01-25 23:36:21.240 ,2,1,0.,24.0,0.,24.0
1986-01-25 23:36:45.240 ,2,0,1.,24.0,0.,24.0
1986-01-25 23:37:09.240 ,1,1,0.,24.0,0.,24.0
1986-01-25 23:37:33.240 ,1,0,0.,24.0,0.,24.0
1986-01-25 23:37:57.240 ,0,1,0.,24.0,0.,24.0
1986-01-25 23:38:21.240 ,0,0,0.,24.0,0.,24.0
1986-01-25 23:38:45.240 ,0,1,0.,24.0,0.,24.0
1986-01-25 23:39:09.240 ,0,0,0.,24.0,0.,24.0
1986-01-25 23:40:06.840 ,0,0,0.,24.0,0.,24.0
1986-01-25 23:40:21.240 ,0,0,,0,,0
1986-01-25 23:40:45.240 ,0,0,0.,24.0,0.,24.0
1986-01-25 23:41:09.240 ,3,1,0.,24.0,0.,24.0
1986-01-25 23:41:33.240 ,3,0,0.,24.0,0.,24.0
1986-01-25 23:41:57.240 ,4,1,0.,24.0,0.,24.0
1986-01-25 23:42:21.240 ,4,0,1.,24.0,0.,24.0
1986-01-25 23:42:45.240 ,5,1,0.,24.0,0.,24.0
1986-01-25 23:43:09.240 ,5,0,0.,24.0,0.,24.0
1986-01-25 23:43:33.240 ,6,1,0.,24.0,0.,24.0
1986-01-25 23:43:57.240 ,6,0,0.,24.0,0.,24.0
1986-01-25 23:44:21.240 ,7,1,0.,24.0,0.,24.0
1986-01-25 23:44:45.240 ,7,0,0.,24.0,0.,24.0
1986-01-25 23:45:09.240 ,7,1,0.,24.0,0.,24.0
1986-01-25 23:45:33.240 ,7,0,0.,24.0,0.,24.0
1986-01-25 23:45:57.240 ,6,1,0.,24.0,0.,24.0
1986-01-25 23:46:21.240 ,6,0,0.,24.0,0.,24.0
1986-01-25 23:46:45.240 ,5,1,0.,24.0,0.,24.0
1986-01-25 23:47:09.240 ,5,0,0.,24.0,0.,24.0
1986-01-25 23:47:33.240 ,4,1,1.,24.0,0.,24.0
1986-01-25 23:47:57.240 ,4,0,0.,24.0,0.,24.0
1986-01-25 23:48:21.240 ,3,1,0.,24.0,0.,24.0
1986-01-25 23:48:45.240 ,3,0,0.,24.0,0.,24.0
1986-01-25 23:49:09.240 ,2,1,0.,24.0,0.,24.0
1986-01-25 23:49:33.240 ,2,0,0.,24.0,0.,24.0
1986-01-25 23:49:57.240 ,1,1,0.,24.0,0.,24.0
1986-01-25 23:50:21.240 ,1,0,0.,24.0,0.,24.0
1986-01-25 23:50:45.240 ,0,1,0.,24.0,0.,24.0
1986-01-25 23:51:09.240 ,0,0,0.,24.0,0.,24.0
1986-01-25 23:51:33.240 ,0,1,0.,24.0,0.,24.0
1986-01-25 23:51:57.240 ,0,0,0.,24.0,0.,24.0
1986-01-25 23:52:21.240 ,1,1,0.,24.0,0.,24.0
1986-01-25 23:52:45.240 ,1,0,0.,24.0,0.,24.0
1986-01-25 23:53:09.240 ,2,1,0.,24.0,0.,24.0
1986-01-25 23:53:33.240 ,2,0,0.,24.0,0.,24.0
1986-01-25 23:53:57.240 ,3,1,0.,24.0,0.,24.0
1986-01-25 23:54:21.240 ,3,0,0.,24.0,0.,24.0
1986-01-25 23:54:45.240 ,4,1,0.,24.0,0.,24.0
1986-01-25 23:55:09.240 ,4,0,0.,24.0,0.,24.0
1986-01-25 23:55:33.240 ,5,1,0.,24.0,0.,24.0
1986-01-25 23:55:57.240 ,5,0,0.,24.0,0.,24.0
1986-01-25 23:56:21.240 ,6,1,0.,24.0,0.,24.0
1986-01-25 23:56:45.240 ,6,0,1.,24.0,0.,24.0
1986-01-25 23:57:09.240 ,7,1,1.,24.0,0.,24.0
1986-01-25 23:57:33.240 ,7,0,0.,24.0,0.,24.0
1986-01-25 23:57:57.240 ,7,1,0.,24.0,0.,24.0
1986-01-25 23:58:21.240 ,7,0,0.,24.0,0.,24.0
1986-01-25 23:58:45.240 ,6,1,1.,24.0,0.,24.0
1986-01-25 23:59:09.240 ,6,0,0.,24.0,0.,24.0
1986-01-25 23:59:33.240 ,5,1,0.,24.0,0.,24.0
1986-01-25 23:59:57.240 ,5,0,0.,24.0,0.,24.0
1986-01-26 00:00:21.240 ,4,1,0.,24.0,0.,24.0
